Location: Newark
(51.0500°N, 12.4500°E)
Time: 04:23:05
(UTC+00:00)

Vanguard 1 - Pass Details

Date: 27 February 2020
Orbit: 649 x 3833 km, 34.2° (Epoch: 04 April)

Event Time Altitude Azimuth Distance (km) Brightness Sun altitude
Rises 07:35:45 0° 245° (WSW) 7,970 14.4 13.0°
Reaches altitude 10° 07:41:42 10° 240° (WSW) 6,905 14.1 13.8°
Maximum altitude 08:01:42 44° 179° (S) 3,867 13.8 16.4°
Drops below altitude 10° 08:14:59 10° 113° (ESE) 4,714 15.3 18.0°
Sets 08:18:09 0° 107° (ESE) 5,351 15.0 18.4°
